| time (UTC) | temp F | wind direction | speed knots | gust knots | rain 1hr in | rain 24hr in | rain mn in | humidity % | barometer mb |
| 20260504034555 | 53 | 178 | 3.5 | 7.8 | 0.00 | 0.07 | 0.07 | 75 | 1006.8 |
| 20260504033043 | 55 | 205 | 2.6 | 5.2 | 0.00 | 0.07 | 0.07 | 72 | 1006.9 |
| 20260504031543 | 55 | 186 | 4.3 | 7.0 | 0.00 | 0.07 | 0.07 | 73 | 1006.9 |
| 20260504030047 | 55 | 189 | 4.3 | 7.8 | 0.00 | 0.07 | 0.07 | 72 | 1007.1 |
| 20260504024551 | 56 | 192 | 5.2 | 6.1 | 0.00 | 0.07 | 0.07 | 70 | 1007.1 |
| 20260504023043 | 57 | 192 | 5.2 | 8.7 | 0.00 | 0.07 | 0.07 | 69 | 1007.0 |
| 20260504021541 | 57 | 198 | 5.2 | 8.7 | 0.00 | 0.07 | 0.07 | 68 | 1006.9 |
| 20260504020041 | 58 | 198 | 6.1 | 8.7 | 0.00 | 0.07 | 0.07 | 67 | 1006.8 |
| 20260504014553 | 58 | 200 | 7.0 | 10.4 | 0.00 | 0.07 | 0.07 | 66 | 1006.7 |
| 20260504013102 | 58 | 192 | 7.0 | 9.6 | 0.00 | 0.07 | 0.07 | 66 | 1006.6 |
| 20260504011543 | 59 | 219 | 6.1 | 8.7 | 0.00 | 0.07 | 0.07 | 64 | 1006.5 |
| 20260504010043 | 61 | 204 | 7.0 | 12.2 | 0.00 | 0.07 | 0.07 | 62 | 1006.5 |
| 20260504004538 | 63 | 207 | 7.0 | 13.9 | 0.00 | 0.07 | 0.07 | 59 | 1006.4 |
| 20260504003037 | 64 | 210 | 8.7 | 13.9 | 0.00 | 0.07 | 0.07 | 57 | 1006.4 |
| 20260504001543 | 65 | 203 | 8.7 | 15.6 | 0.00 | 0.07 | 0.07 | 56 | 1006.6 |
| 20260504000043 | 66 | 202 | 10.4 | 16.5 | 0.00 | 0.07 | 0.07 | 54 | 1006.5 |
| 20260503234538 | 67 | 211 | 10.4 | 20.0 | 0.00 | 0.07 | 0.07 | 55 | 1006.6 |
| 20260503233039 | 68 | 238 | 12.2 | 18.2 | 0.00 | 0.07 | 0.07 | 52 | 1006.6 |
| 20260503231537 | 68 | 205 | 13.9 | 21.7 | 0.00 | 0.07 | 0.07 | 53 | 1006.6 |
| 20260503230045 | 69 | 211 | 13.9 | 20.9 | 0.00 | 0.07 | 0.07 | 53 | 1006.7 |
| 20260503224543 | 69 | 217 | 15.6 | 21.7 | 0.00 | 0.07 | 0.07 | 51 | 1006.8 |
| 20260503223039 | 69 | 244 | 14.8 | 23.5 | 0.00 | 0.07 | 0.07 | 51 | 1006.7 |
| 20260503221537 | 66 | 194 | 14.8 | 22.6 | 0.00 | 0.07 | 0.07 | 53 | 1006.9 |
| 20260503220047 | 68 | 206 | 13.0 | 20.9 | 0.00 | 0.07 | 0.07 | 50 | 1007.1 |
| 20260503214542 | 66 | 213 | 12.2 | 16.5 | 0.00 | 0.07 | 0.07 | 56 | 1007.1 |
| 20260503213044 | 65 | 181 | 12.2 | 20.0 | 0.00 | 0.07 | 0.07 | 53 | 1007.2 |
| 20260503211544 | 65 | 215 | 13.9 | 20.0 | 0.00 | 0.07 | 0.07 | 51 | 1007.4 |
| 20260503210044 | 66 | 179 | 9.6 | 21.7 | 0.00 | 0.07 | 0.07 | 53 | 1008.0 |
| 20260503204553 | 65 | 200 | 14.8 | 22.6 | 0.00 | 0.07 | 0.07 | 52 | 1008.4 |
| 20260503203049 | 64 | 223 | 15.6 | 26.9 | 0.00 | 0.07 | 0.07 | 51 | 1008.8 |
| 20260503201546 | 64 | 191 | 19.1 | 26.9 | 0.00 | 0.07 | 0.07 | 50 | 1009.0 |
| 20260503200037 | 64 | 194 | 13.9 | 26.9 | 0.00 | 0.07 | 0.07 | 52 | 1009.2 |
| 20260503194546 | 67 | 205 | 20.0 | 34.8 | 0.00 | 0.07 | 0.07 | 48 | 1009.6 |
| 20260503193048 | 66 | 189 | 18.2 | 28.7 | 0.00 | 0.07 | 0.07 | 55 | 1009.6 |
| 20260503191603 | 65 | 183 | 13.9 | 27.8 | 0.00 | 0.07 | 0.07 | 55 | 1009.7 |
| 20260503190037 | 63 | 184 | 13.9 | 26.9 | 0.00 | 0.07 | 0.07 | 63 | 1009.8 |
| 20260503184538 | 62 | 184 | 13.0 | 23.5 | 0.00 | 0.07 | 0.07 | 63 | 1010.1 |
| 20260503183042 | 60 | 149 | 7.8 | 21.7 | 0.00 | 0.07 | 0.07 | 67 | 1010.4 |
| 20260503181547 | 57 | 194 | 5.2 | 14.8 | 0.00 | 0.07 | 0.07 | 72 | 1010.9 |
| 20260503180040 | 54 | 153 | 2.6 | 9.6 | 0.00 | 0.07 | 0.07 | 78 | 1011.3 |
| 20260503174545 | 50 | 80 | 0.9 | 7.0 | 0.00 | 0.07 | 0.07 | 83 | 1011.8 |
| 20260503173042 | 49 | 95 | 0.9 | 7.0 | 0.01 | 0.07 | 0.07 | 82 | 1012.3 |
| 20260503171539 | 48 | 183 | 0.9 | 7.0 | 0.02 | 0.07 | 0.07 | 84 | 1013.3 |
| 20260503081540 | 36 | 211 | 3.5 | 5.2 | 0.00 | 0.00 | 0.00 | 78 | 1015.6 |
| 20260503071536 | 38 | 201 | 2.6 | 5.2 | 0.00 | 0.00 | 0.00 | 77 | 1015.7 |
| 20260503054558 | 39 | 202 | 3.5 | 6.1 | 0.00 | 0.00 | 0.00 | 75 | 1016.4 |
| 20260503053036 | 38 | 198 | 3.5 | 7.0 | 0.00 | 0.00 | 0.00 | 77 | 1016.5 |
| 20260503051538 | 37 | 207 | 4.3 | 6.1 | 0.00 | 0.00 | 0.00 | 77 | 1016.7 |
| 20260503050037 | 37 | 209 | 3.5 | 6.1 | 0.00 | 0.00 | 0.00 | 75 | 1016.7 |
| 20260503044541 | 38 | 209 | 0.9 | 4.3 | 0.00 | 0.00 | 0.00 | 75 | 1016.8 |
| 20260503043051 | 38 | 0 | 0.0 | 3.5 | 0.00 | 0.00 | 0.00 | 75 | 1016.7 |
| 20260503041542 | 39 | 225 | 0.9 | 1.7 | 0.00 | 0.00 | 0.00 | 75 | 1016.9 |
| 20260503040038 | 39 | 238 | 0.9 | 2.6 | 0.00 | 0.00 | 0.00 | 75 | 1017.0 |